IRS-P5 (CARTOSAT-1)

Last updated on Sun Mar 15 2026 00:02:35 GMT+0000 (Coordinated Universal Time)

1 28649U 05017A 26073.58144948 .00001789 00000+0 18730-3 0 9999 2 28649 97.5411 100.9106 0002153 63.1911 296.9527 14.90785481129725
UTC large
Height (km)
Speed (km/s)
/
Latitude / Longitude
Inclination (degrees)
Orbital Period (minutes)
Azimuth
Elevation
Range (km)
Doppler Factor

Next 0 passes for location: London (51.5072 / 0.1276)

Sorry there are no passes over London.